Tracking 29033 objects as of 22-Jun-2024
HD Live streaming from Space Station
objects crossing your sky now

STARLINK-6229

Track STARLINK-6229 now!
10-day predictions
STARLINK-6229 is classified as:


NORAD ID: 57093
Int'l Code: 2023-088AX
Perigee: 565.3 km
Apogee: 567.1 km
Inclination: 43.0 °
Period: 95.8 minutes
Semi major axis: 6937 km
RCS: Unknown
Launch date: June 22, 2023
Source: United States (US)
Launch site: AIR FORCE WESTERN TEST RANGE (AFWTR)
Your satellite tracking list
Your tracking list is empty




NASA's NSSDC Master Catalog

Two Line Element Set (TLE):
1 57093U 23088AX  24173.60970903  .00000891  00000-0  81009-4 0  9996
2 57093  43.0026 256.1850 0001282 284.2946  75.7754 15.02534027 56348
Source of the keplerian elements: AFSPC